Regional Weather Roundup
Issued by NWS

Home | Current Version | Previous Version | Text Only | Print | Product List | Glossary Off
Versions: 1 2 3 4 5 6 7 8 9 10 11 12 13 14 15 16 17 18 19 20 21 22 23 24 25 26 27 28 29 30 31 32 33 34 35 36 37 38 39 40 41 42 43 44 45 46 47 48 49 50

000
ASUS43 KMPX 230801
RWRMN
WEATHER ROUNDUP FOR MINNESOTA
NATIONAL WEATHER SERVICE TWIN CITIES/CHANHASSEN MN
300 AM CDT WED APR 23 2014


NOTE: "FAIR" INDICATES FEW OR NO CLOUDS BELOW 12,000 FEET WITH NO
SIGNIFICANT WEATHER AND/OR OBSTRUCTIONS TO VISIBILITY. N/A MEANS
CURRENT SKY AND/OR WEATHER CONDITIONS ARE NOT AVAILABLE.

MNZ060>063-068>070-230900-
   Twin Cities Metro

CITY           SKY/WX    TMP DP  RH WIND       PRES   REMARKS
TWIN CITIES    MOCLDY    44  26  49 SE9       30.09R
ST PAUL        PTCLDY    43  26  51 SE7       30.10R
CRYSTAL        PTCLDY    44  24  45 E3        30.07S
BLAINE         CLEAR     41  27  56 CALM      30.09R
EDEN PRAIRIE   PTCLDY    45  25  45 E7        30.06F
LAKEVILLE      PTCLDY    34  27  75 CALM      30.08S
SOUTH ST PAUL  PTCLDY    44  26  49 S3        30.10R
LAKE ELMO      FAIR      39  28  65 SE3       30.10R
$$
MNZ001>005-007-008-013>017-022>024-027-028-230900-
   Northwest Minnesota

CITY           SKY/WX    TMP DP  RH WIND       PRES   REMARKS
BEMIDJI        CLEAR     33  21  60 E6        30.04S WCI  28
HALLOCK        CLOUDY    39  25  56 E12       29.98S
ROSEAU         CLEAR     39  25  56 SE10      30.03S
WARROAD        CLEAR     34  25  69 SE6       30.05S WCI  29
THIEF RVR FALL CLEAR     37  25  60 E10       30.00F
CROOKSTON      CLEAR     39  28  65 SE9       29.98F
FOSSTON        CLEAR     39  21  48 SE9G16    30.00F
DETROIT LAKES  MOCLDY    43  28  56 SE13      30.00S
MOORHEAD       MOCLDY    46  30  53 SE10      29.96F
PARK RAPIDS    PTCLDY    38  22  52 E6        30.02S
$$
MNZ006-009>011-018-025>026-230900-
   North Central Minnesota

CITY           SKY/WX    TMP DP  RH WIND       PRES   REMARKS
BAUDETTE       CLEAR     34  22  61 SE6       30.06F WCI  29
FLAG ISLAND    CLEAR     34  21  60 E5        30.05F WCI  30
INTL FALLS     CLEAR     25  21  85 CALM      30.08F
WASKISH        CLEAR     34  23  64 E6        30.06S WCI  29
BIG FORK       CLEAR     27  21  80 CALM      30.08F
LONGVILLE      CLEAR     27  23  86 CALM      30.06S
GRAND RAPIDS   CLEAR     36  18  48 SE6       30.08S
CRANE LAKE     CLEAR     19  16  86 CALM      30.13S
ORR            CLEAR     30  19  64 E3        30.07F
COOK           CLEAR     25  21  86 CALM      30.10F
$$
MNZ012-019>021-037-230900-
   Northeast Minnesota

CITY           SKY/WX    TMP DP  RH WIND       PRES   REMARKS
DULUTH         CLEAR     33  22  63 E8        30.10S WCI  26
ELY            CLEAR     23  21  93 CALM      30.11S
HIBBING        CLEAR     26  21  81 CALM      30.09F
EVELETH        CLEAR     23  21  93 CALM      30.11S
DULUTH HARBOR  CLEAR     30  27  86 CALM      30.14S
TWO HARBORS    CLEAR     27  21  80 CALM      30.10S
SILVER BAY     CLEAR     23  21  93 CALM      30.11S
GRAND MARAIS     N/A     29  25  85 NW3       30.14S
G MARAIS ARPRT CLEAR     23  19  86 S3        30.11S
$$
MNZ029>031-032-039>041-046>048-054>057-064-230900-
   West Central Minnesota

CITY           SKY/WX    TMP DP  RH WIND       PRES   REMARKS
FERGUS FALLS   CLOUDY    48  25  40 SE13      29.95S
WHEATON        CLOUDY    50  36  57 SE18      29.97F
MORRIS         CLOUDY    46  30  53 SE16      29.97F
ALEXANDRIA     CLOUDY    45  27  49 SE14      30.01S
ELBOW LAKE     CLOUDY    47  29  49 SE14G21   29.97F
WADENA         MOCLDY    37  27  65 SE6       30.01F
GLENWOOD       CLOUDY    43  28  56 SE9       30.02S
APPLETON       LGT RAIN  48  32  53 SE13      29.98S
BENSON         CLOUDY    48  30  49 S15G23    30.00F
ORTONVILLE     DRIZZLE   46  36  66 SE16      29.96S
MADISON        RAIN      52  37  58 SE14      29.97F
WILLMAR        FAIR      45  30  57 SE9       30.04R
$$
MNZ033>034-036-042>043-049>051-058-059-230900-
   Central Minnesota

CITY           SKY/WX    TMP DP  RH WIND       PRES   REMARKS
ST CLOUD       MOCLDY    43  23  45 E6        30.06S
SAUK CENTRE    FAIR      42  28  55 E7        30.03S
PAYNESVILLE    CLOUDY    46  24  42 SE13      30.03F
AITKIN         CLEAR     28  25  86 CALM      30.05F
PINE RIVER     CLEAR     36  25  64 SE3       30.08F
BRAINERD       CLEAR     36  24  62 CALM      30.06S
STAPLES        PTCLDY    39  23  52 CALM      30.03F
LONG PRAIRIE   FAIR      43  25  49 E7        30.04S
LITTLE FALLS   MOCLDY    41  23  48 E6        30.05F
LITCHFIELD     CLOUDY    46  30  53 SE10      30.04F
BUFFALO        MOCLDY    42  26  53 E7        30.07S
MAPLE LAKE     MOCLDY    43  29  56 E3        30.07S
$$
MNZ037-044-045-052-053-230900-
   East Central Minnesota

CITY           SKY/WX    TMP DP  RH WIND       PRES   REMARKS
PRINCETON      PTCLDY    41  25  52 E5        30.08S
MORA           PTCLDY    32  28  86 CALM      30.10S
CAMBRIDGE      PTCLDY    45  28  53 SE5       30.07S
MOOSE LAKE     CLEAR     30  23  74 NE6       30.08S WCI  24
HINCKLEY       FAIR      30  28  93 CALM      30.09S
CLOQUET        CLEAR     34  21  60 E3        30.10S
MCGREGOR       CLEAR     34  28  80 E5        30.08S WCI  30
$$
MNZ071>073-080-081-089-090-097-098-230900-
   Southwest Minnesota

CITY           SKY/WX    TMP DP  RH WIND       PRES   REMARKS
MONTEVIDEO     LGT RAIN  48  34  57 S15       30.00F
GRANITE FALLS  CLOUDY    49  31  49 E14       30.01S
CANBY          DRIZZLE   49  37  64 SE12      29.97S
MARSHALL       CLOUDY    50  34  53 SE15      29.97F
REDWOOD FALLS  CLOUDY    49  31  49 SE12      30.02R
OLIVIA         CLOUDY    46  32  57 SE12      30.02R
PIPESTONE      CLOUDY    52  34  50 SE15      29.94S
WINDOM         CLOUDY    50  34  53 E13       30.01F
WORTHINGTON    CLOUDY    50  30  46 SE16      30.00F
JACKSON        CLOUDY    50  32  50 SE12      30.01F
TRACY          CLOUDY    51  36  57 SE10G17   29.99F
SLAYTON        CLOUDY    49  32  51 SE18      29.98F
$$
MNZ065>067-074>077-082>085-091>093-230900-
   South Central Minnesota

CITY           SKY/WX    TMP DP  RH WIND       PRES   REMARKS
MANKATO        CLOUDY    45  28  53 SE10      30.06S
NEW ULM        CLOUDY    48  28  46 SE13      30.04R
ST JAMES       CLOUDY    48  34  57 SE9       30.04F
FAIRMONT       CLOUDY    46  34  61 SE12      30.05S
GLENCOE        CLOUDY    44  28  52 E9        30.05S
FARIBAULT      MOCLDY    48  19  32 E8        30.08R
OWATONNA       CLOUDY    45  27  49 E12       30.07S
WASECA         CLOUDY    41  27  56 E10       30.08S
ALBERT LEA     MOCLDY    46  28  49 SE10      30.07R
$$
MNZ078>079-086>088-094>096-230900-
   Southeast Minnesota

CITY           SKY/WX    TMP DP  RH WIND       PRES   REMARKS
ROCHESTER      MOCLDY    40  25  55 SE9       30.08S
RED WING       PTCLDY    41  25  52 E5        30.09S
DODGE CENTER   MOCLDY    41  30  65 E6        30.08R
WINONA         CLEAR     37  34  87 CALM      30.12S
AUSTIN         CLOUDY    43  30  61 E7        30.07R
PRESTON        MOCLDY    40  27  58 E7        30.08F
$$
ABBREVIATIONS USED IN REMARKS
   TC - TEMPERATURES IN CELSIUS
  WCI - WIND CHILL INDEX
   HX - HEAT INDEX
  VSB - VISIBILITY
$$



USA.gov is the U.S. government's official web portal to all federal, state and local government web resources and services.